This is the latest recevied weather packets stored in our database for station/object KT2UU-13. If no packets are shown the sender has not sent any weather packets the latest 10 day(s).
| Time | Temp. | Humidity | Pressure | Rain* | Wind** | Luminosity | Snow |
|---|---|---|---|---|---|---|---|
| 1777590032 | 20.56° C | 47% | 1012.6 hPa | 0 mm | - | - | - |
| 1777589728 | 21.11° C | 48% | 1012.6 hPa | 0 mm | - | - | - |
| 1777589427 | 20.56° C | 49% | 1012.4 hPa | 0 mm | - | - | - |
| 1777589123 | 20° C | 48% | 1012.7 hPa | 0 mm | - | - | - |
| 1777588819 | 20° C | 51% | 1012.8 hPa | 0 mm | - | - | - |
| 1777588515 | 20° C | 49% | 1013 hPa | 0 mm | - | - | - |
| 1777588210 | 20° C | 50% | 1013.5 hPa | 0 mm | - | - | - |
| 1777587906 | 19.44° C | 51% | 1013.6 hPa | 0 mm | - | - | - |
| 1777587601 | 20° C | 53% | 1013.6 hPa | 0 mm | - | - | - |
| 1777587297 | 20° C | 50% | 1013.7 hPa | 0 mm | - | - | - |
| 1777586992 | 19.44° C | 50% | 1013.8 hPa | 0 mm | - | - | - |
| 1777586688 | 19.44° C | 52% | 1013.6 hPa | 0 mm | - | - | - |
| 1777586383 | 19.44° C | 51% | 1013.5 hPa | 0 mm | - | - | - |
| 1777586083 | 19.44° C | 52% | 1013.5 hPa | 0 mm | - | - | - |
| 1777585781 | 19.44° C | 51% | 1013.6 hPa | 0 mm | - | - | - |
| 1777585476 | 19.44° C | 50% | 1013.6 hPa | 0 mm | - | - | - |
| 1777585173 | 19.44° C | 53% | 1013.7 hPa | 0 mm | - | - | - |
| 1777584869 | 19.44° C | 51% | 1013.7 hPa | 0 mm | - | - | - |
| 1777584567 | 19.44° C | 52% | 1013.4 hPa | 0 mm | - | - | - |
| 1777584263 | 20° C | 54% | 1013.4 hPa | 0 mm | - | - | - |
| 1777583963 | 20° C | 53% | 1013.6 hPa | 0 mm | - | - | - |
| 1777583658 | 20° C | 54% | 1013.7 hPa | 0 mm | - | - | - |
| 1777583357 | 20° C | 55% | 1013.7 hPa | 0 mm | - | - | - |
| 1777583052 | 20° C | 55% | 1013.7 hPa | 0 mm | - | - | - |
| 1777582749 | 20.56° C | 54% | 1013.6 hPa | 0 mm | - | - | - |
* Rain latest hour (hover to see other rain measurements)
** Current wind speed in m/s (hover to see current wind gust speed)